FW8815 Weather Reports


time (UTC)temp
C
wind
direction
speed
KPH
gust
KPH
rain 1hr
cm
rain 24hr
cm
rain mn
cm
humidity
%
barometer
mb
20260504214320 15 213 1.6 1.6 0.00 0.00 0.00 98 1018.8
20260504212815 15 217 0.0 1.6 0.00 0.00 0.00 98 1018.9
20260504211310 15 238 0.0 0.0 0.00 0.00 0.00 97 1019.0
20260504205808 15 235 0.0 0.0 0.00 0.00 0.00 97 1019.2
20260504204308 15 238 0.0 1.6 0.00 0.00 0.00 96 1019.2
20260504202804 16 111 1.6 1.6 0.00 0.00 0.00 95 1019.4
20260504201301 16 106 0.0 0.0 0.00 0.00 0.00 92 1019.5
20260504195757 16 228 0.0 0.0 0.00 0.00 0.00 93 1019.7
20260504194252 16 259 0.0 0.0 0.00 0.00 0.00 93 1020.0
20260504192750 16 241 0.0 0.0 0.00 0.00 0.00 93 1019.8
20260504191249 16 255 0.0 0.0 0.00 0.00 0.00 92 1019.6
20260504185749 17 222 1.6 1.6 0.00 0.00 0.00 92 1019.4
20260504184244 16 202 0.0 0.0 0.00 0.00 0.00 93 1019.4
20260504182741 16 227 0.0 0.0 0.00 0.00 0.00 93 1019.6
20260504181238 16 207 0.0 0.0 0.00 0.00 0.00 93 1019.6
20260504175733 16 234 0.0 0.0 0.00 0.00 0.00 93 1019.5
20260504174231 17 236 0.0 0.0 0.00 0.00 0.00 92 1019.3
20260504172726 17 242 0.0 0.0 0.00 0.00 0.00 92 1019.3
20260504171222 17 233 0.0 0.0 0.00 0.00 0.00 90 1019.6
20260504141148 23 264 1.6 1.6 0.00 0.00 0.00 70 1019.5
20260504081048 21 288 1.6 4.8 0.00 0.00 0.00 82 1024.0
20260504045507 11 240 0.0 0.0 0.00 0.00 0.00 99 1023.5
20260504044003 11 241 0.0 0.0 0.00 0.00 0.00 99 1023.6
20260504042500 10 232 0.0 0.0 0.00 0.00 0.00 99 1023.3
20260504041000 10 232 0.0 0.0 0.00 0.00 0.00 99 1023.4
20260504035457 10 233 0.0 0.0 0.00 0.00 0.00 99 1023.3
20260504033953 10 229 0.0 0.0 0.00 0.00 0.00 99 1023.2
20260504032451 11 243 0.0 0.0 0.00 0.00 0.00 99 1023.1
20260504030947 11 255 0.0 0.0 0.00 0.00 0.00 99 1023.3
20260504025443 11 259 0.0 0.0 0.00 0.00 0.00 99 1022.8
20260504023940 11 260 0.0 0.0 0.00 0.00 0.00 99 1022.6
20260504022440 11 239 0.0 0.0 0.00 0.00 0.00 99 1022.7
20260504020937 11 221 0.0 1.6 0.00 0.00 0.00 99 1022.8
20260504015432 11 241 0.0 0.0 0.00 0.00 0.00 99 1022.8
20260504013932 12 247 0.0 0.0 0.00 0.00 0.00 99 1022.9
20260504012430 12 227 0.0 0.0 0.00 0.00 0.00 99 1022.7
20260504010926 12 220 0.0 1.6 0.00 0.00 0.00 99 1023.2
20260504005421 12 232 0.0 0.0 0.00 0.00 0.00 99 1023.2
20260504003919 12 222 0.0 1.6 0.00 0.00 0.00 99 1023.2
20260504002415 12 223 0.0 0.0 0.00 0.00 0.00 99 1023.4
20260504000911 12 230 0.0 0.0 0.00 0.00 0.00 99 1023.5
20260503235410 12 284 0.0 0.0 0.00 0.00 0.00 99 1023.6
20260503233908 12 215 0.0 1.6 0.00 0.00 0.00 98 1023.7
20260503232404 12 230 0.0 0.0 0.00 0.00 0.00 99 1023.9
20260503230901 12 243 0.0 0.0 0.00 0.00 0.00 99 1023.9
20260503225357 12 215 0.0 0.0 0.00 0.00 0.00 99 1024.0
20260503223854 12 187 1.6 1.6 0.00 0.00 0.00 99 1024.2
20260503222352 12 241 0.0 0.0 0.00 0.00 0.00 99 1024.1
20260503220849 13 247 0.0 0.0 0.00 0.00 0.00 98 1024.1
20260503215347 13 227 0.0 0.0 0.00 0.00 0.00 98 1024.3